User: anonymous   Login
Location: Newport
(44.6370°N, 124.0520°W)
Time: 01:36:25
(UTC-07:00)
Language:

Envisat - Orbit

View from above orbital plane
View from above orbital plane
View from above satellite
View from above satellite

Ground track
Ground track

The orbit data is extracted from the following two-line orbital elements,

1 27386U 02009A   18227.67112553 -.00000015  00000-0  85141-5 0  9998
2 27386  98.1806 258.9159 0001416  91.2198  16.7975 14.37927586862071
Epoch (UTC): 15 August 2018 16:06:25
Eccentricity: 0.0001416
inclination: 98.1806°
perigee height: 764 km
apogee height: 766 km
right ascension of ascending node: 258.9159°
argument of perigee: 91.2198°
revolutions per day: 14.37927586
mean anomaly at epoch: 16.7975°
orbit number at epoch: 86207

The dashed part of the orbit path shows where the satellite is in the earth's shadow,  

DLR